PHT,Max TemperatureF,Mean TemperatureF,Min TemperatureF,Max Dew PointF,MeanDew PointF,Min DewpointF,Max Humidity, Mean Humidity, Min Humidity, Max Sea Level PressureIn, Mean Sea Level PressureIn, Min Sea Level PressureIn, Max VisibilityMiles, Mean VisibilityMiles, Min VisibilityMiles, Max Wind SpeedMPH, Mean Wind SpeedMPH, Max Gust SpeedMPH,PrecipitationIn, CloudCover, Events, WindDirDegrees
2013-8-1,84,79,74,77,75,73,94,90,77,29.78,29.68,29.62,11,5,2,11,5,,1.06,8,Rain,159
2013-8-2,93,84,76,79,77,75,89,76,52,29.91,29.79,29.74,12,8,6,12,6,,0.00,7,Rain,170
2013-8-3,90,82,75,78,75,72,94,78,52,29.90,29.87,29.80,12,8,6,10,4,,0.75,4,Rain-Thunderstorm,13
2013-8-4,90,82,74,77,76,73,94,79,55,29.86,29.79,29.71,12,7,6,15,6,,0.02,6,Rain,65
2013-8-5,90,84,77,77,75,73,84,71,57,29.79,29.74,29.65,12,8,6,14,9,,0.02,6,Rain,87
2013-8-6,87,82,78,78,76,73,89,80,60,29.87,29.80,29.74,11,7,6,14,10,,0.01,7,Rain,96
2013-8-7,92,84,77,84,78,73,89,80,70,29.88,29.82,29.77,12,7,6,12,8,,0.00,5,,83
2013-8-8,90,82,75,84,77,73,95,80,59,29.89,29.79,29.74,12,6,4,18,5,,0.00,4,Rain,1
2013-8-9,85,80,75,78,76,73,94,83,68,29.80,29.74,29.68,12,7,6,10,5,,0.00,5,Rain,56
2013-8-10,93,85,77,81,75,72,89,78,48,29.79,29.74,29.68,12,8,6,18,6,,0.00,5,Thunderstorm,91
2013-8-11,89,82,75,81,76,73,94,83,60,29.77,29.71,29.68,12,7,5,14,4,,0.75,6,Rain-Thunderstorm,24
2013-8-12,83,80,77,78,76,73,94,85,71,29.68,29.59,29.53,6,5,1,25,11,38,2.20,8,Rain,224
2013-8-13,84,80,77,77,74,72,94,81,66,29.78,29.71,29.65,9,6,4,18,14,39,0.00,7,Rain,186
2013-8-14,90,83,76,79,76,73,89,75,53,29.87,29.80,29.74,11,7,6,12,6,,0.12,6,Rain,207
2013-8-15,90,84,79,83,78,77,94,80,65,29.83,29.79,29.74,12,7,6,14,6,,0.00,6,,226
2013-8-16,90,84,78,82,78,75,89,80,70,29.80,29.73,29.68,11,7,6,16,10,,0.08,6,Rain,241
2013-8-17,84,80,77,78,77,75,100,86,75,29.74,29.70,29.65,7,5,0,30,16,46,1.10,7,Rain,233
2013-8-18,83,80,77,79,77,73,94,88,74,29.86,29.69,29.62,6,4,0,25,17,36,2.44,8,Rain-Thunderstorm,236
2013-8-19,83,79,75,79,77,73,100,88,74,29.69,29.65,29.59,5,4,2,18,11,31,1.14,8,Rain-Thunderstorm,241
2013-8-20,83,78,73,79,76,72,100,91,79,29.68,29.63,29.59,5,3,0,23,16,40,1.81,8,Rain-Thunderstorm,259
2013-8-21,83,78,73,77,75,73,94,85,70,29.67,29.62,29.53,9,5,3,28,13,44,1.02,8,Rain,237
2013-8-22,84,80,75,79,76,73,90,85,75,29.80,29.70,29.62,7,6,4,21,13,,0.79,7,Rain-Thunderstorm,206
2013-8-23,84,80,75,79,75,73,100,88,71,29.83,29.76,29.71,7,6,2,14,6,,4.57,8,Rain-Thunderstorm,167
2013-8-24,86,80,75,79,75,72,95,85,65,29.81,29.77,29.71,11,6,2,12,3,,0.55,7,Rain,199
2013-8-25,85,79,73,78,75,72,96,84,63,29.80,29.73,29.68,12,7,6,10,4,,0.00,6,Rain,193
2013-8-26,84,80,77,78,75,73,95,85,70,29.77,29.71,29.68,9,7,6,20,8,,0.00,7,Rain,223
2013-8-27,84,80,75,77,76,73,100,87,75,29.79,29.74,29.71,9,5,2,26,13,30,1.26,8,Rain,226
2013-8-28,86,81,76,79,77,73,94,83,70,29.84,29.80,29.74,12,6,2,22,12,,0.12,7,Rain,211
2013-8-29,89,82,75,81,78,75,100,83,60,29.87,29.83,29.71,12,7,3,9,5,,0.12,5,Rain,209
2013-8-30,90,84,77,79,77,75,94,77,53,29.89,29.84,29.77,12,7,2,10,3,,0.00,5,,210
2013-8-31,91,84,76,77,76,73,89,75,55,29.89,29.84,29.80,12,7,6,9,4,,0.00,6,,8